Terug naar catalogus

COSMOS 970 DEB

ActiefLEO
NORAD 10881·DEBRIS·🇷🇺 Russia

Gelanceerd Dec 21, 1977 vanaf Baikonur Cosmodrome

Loading…

Volgende Passages (komende 24 uur)

TLE

VersSource: Space-Track

Epoch: Sep 14, 2026, 10:14 UTC

1 10881U 77121AC  26257.42685162  .00000110  00000-0  20513-3 0  9998
2 10881  65.8432 221.9352 0122572  94.6600 266.8472 13.69576707429524

Volg COSMOS 970 DEB in realtime met AllMySat

Download on the App Store